Location: Casco Millpond
(44.5581°N, 87.6111°W)
Time: 20:49:27
(UTC+00:00)

SPOT 1/Viking Rocket - Pass Details

Date: 16 January 2026
Orbit: 772 x 790 km, 98.2° (Epoch: 10 February)

Event Time Altitude Azimuth Distance (km) Brightness Sun altitude
Rises 23:08:52 0° 141° (SE) 3,257 6.6 -5.8°
Reaches altitude 10° 23:11:19 10° 133° (SE) 2,330 5.8 -6.2°
Maximum altitude 23:16:00 37° 68° (ENE) 1,203 4.0 -6.9°
Drops below altitude 10° 23:20:41 10° 2° (N) 2,334 5.8 -7.7°
Sets 23:23:08 0° 355° (N) 3,264 6.6 -8.1°
